Main page
METAR-TAF:

METAR-TAF

Airports :

Zabol Airport

Zabol, Iran

latitude: 31-20N, longitude: 061-29E, elevation: 489 m

Current weather observation

The report was made 1 hour and 14 minutes ago, at 13:00 UTC
Wind 6 kt from the North/Northwest
Temperature 21°C
Humidity 20%
Pressure 1008 hPa
Visibility: 7000 m

METAR: OIZB 211300Z 33006KT 7000 NSC 21/M03 Q1008

Time: 17:44 (14:14 UTC)


TAF: missing

Weather observations and forecasts of more than 4000 airports (METAR and TAF reports).

The available stations are represented by yellow and red dots on the map.

Hover mouse over dot to see the name of the station.

Then click to see weather observations and forecasts.

To change the map : click on the green buttons with a black cross to zoom in, on the green button with a dash to zoom out, or on the green arrows for adjacent maps.


METAR-TAF: